User: anonymous   Login
Location: Lecco
(45.8566°N, 9.3977°E)
Time: 22:49:06
(UTC+02:00)
Language:

A-11 Canister half - Orbit

View from above orbital plane
View from above orbital plane
View from above satellite
View from above satellite

Ground track
Ground track

The orbit data is extracted from the following two-line orbital elements,

1    51U 60009C   19203.16319280 -.00000054  00000-0  28534-3 0  9991
2    51  47.2144 292.3501 0107302 257.0518 101.8269 12.18274042623697
Epoch (UTC): 22 July 2019 03:54:59
Eccentricity: 0.0107302
inclination: 47.2144°
perigee height: 1514 km
apogee height: 1685 km
right ascension of ascending node: 292.3501°
argument of perigee: 257.0518°
revolutions per day: 12.18274042
mean anomaly at epoch: 101.8269°
orbit number at epoch: 62369

The dashed part of the orbit path shows where the satellite is in the earth's shadow,  

DLR